Chippewa, MI

12:46 PM EST on December 12, 2019 (GMT -0500)
Chippewa County International

Weather History for KCIU - October, 2019

Change the Weather History Date:

Wednesday, October 9, 2019

  Actual Average Record
Temperature  
Mean Temperature 54 °F -  
Max Temperature 66 °F 54 °F 75 °F (2003)
Min Temperature 44 °F 32 °F 19 °F (1980)
Degree Days  
Heating Degree Days 11    
Growing Degree Days 4 (Base 50)    
Moisture  
Dew Point 47 °F    
Average Humidity 86    
Maximum Humidity 100    
Minimum Humidity 48    
Precipitation  
Precipitation 0.00 in - - ()
Sea Level Pressure  
Sea Level Pressure 30.25 in    
Wind  
Wind Speed 8 mph ()    
Max Wind Speed 22 mph    
Max Gust Speed 25 mph    
Visibility 7.3 miles    
Events Fog    
Averages and records for this station are not official NWS values.
T = Trace of Precipitation, MM = Missing Value Source: Averaged Metar Reports

Daily Weather History Graph

Daily Weather History Graph

Search for Another Location

Airport or City:

Astronomy

Oct. 09, 2019 Rise Set
Actual Time 7:46 AM EDT 7:02 PM EDT
Civil Twilight 7:16 AM EDT 7:32 PM EDT
Nautical Twilight 6:41 AM EDT 8:07 PM EDT
Astronomical Twilight 6:06 AM EDT 8:42 PM EDT
Moon 5:51 PM EDT (10/9) 3:12 AM EDT (10/9)
Length of Visible Light 12h 16m
Length of Day
11h 16m
Waxing Gibbous, 85% of the Moon is Illuminated
Oct 9
Waxing Gibbous
Oct 13
Full
Oct 21
Last Quarter
Oct 27
New
Nov 4
First Quarter

Hourly Weather History & Observations

Time (EDT) Temp. Windchill Dew Point Humidity Pressure Visibility Wind Dir Wind Speed Gust Speed Precip Events Conditions
12:56 AM 44.1 °F 39.5 °F 43.0 °F 96% 30.22 in 10.0 mi SE 8.1 mph - N/A   Clear
1:56 AM 46.0 °F 43.9 °F 45.0 °F 96% 30.22 in 10.0 mi SE 4.6 mph - N/A   Clear
2:56 AM 45.0 °F 41.8 °F 44.1 °F 97% 30.23 in 10.0 mi SE 5.8 mph - N/A   Clear
3:56 AM 44.1 °F 40.1 °F 44.1 °F 100% 30.23 in 10.0 mi SSE 6.9 mph - N/A   Clear
4:56 AM 44.1 °F 40.1 °F 44.1 °F 100% 30.24 in 10.0 mi SE 6.9 mph - N/A   Clear
5:56 AM 46.0 °F 41.9 °F 45.0 °F 96% 30.25 in 10.0 mi SSE 8.1 mph - N/A   Clear
6:56 AM 46.0 °F 42.5 °F 45.0 °F 96% 30.26 in 4.0 mi SSE 6.9 mph - N/A   Clear
7:02 AM 44.6 °F 40.7 °F 44.6 °F 100% 30.25 in 1.8 mi SSE 6.9 mph - N/A   Clear
7:16 AM 46.4 °F 42.9 °F 46.4 °F 100% 30.25 in 2.0 mi SSE 6.9 mph - N/A   Clear
7:22 AM 46.4 °F 42.4 °F 44.6 °F 93% 30.25 in 1.0 mi SSE 8.1 mph - N/A   Clear
7:33 AM 44.6 °F 40.2 °F 44.6 °F 100% 30.25 in 0.8 mi SSE 8.1 mph - N/A   Clear
7:47 AM 44.6 °F 40.7 °F 44.6 °F 100% 30.25 in 0.5 mi SE 6.9 mph - N/A Fog Fog
7:54 AM 44.6 °F 40.7 °F 44.6 °F 100% 30.25 in 0.2 mi SE 6.9 mph - N/A Fog Fog
7:56 AM 45.0 °F 41.2 °F 45.0 °F 100% 30.26 in 0.2 mi SE 6.9 mph - N/A Fog Fog
8:29 AM 46.4 °F 43.5 °F 46.4 °F 100% 30.25 in 0.8 mi SE 5.8 mph - N/A   Clear
8:33 AM 48.2 °F - 48.2 °F 100% 30.26 in 3.0 mi SE 5.8 mph - N/A   Clear
8:56 AM 50.0 °F - 50.0 °F 100% 30.27 in 10.0 mi SSE 6.9 mph - N/A   Clear
9:56 AM 54.0 °F - 50.0 °F 86% 30.28 in 10.0 mi SSE 10.4 mph - N/A   Clear
10:56 AM 57.9 °F - 51.1 °F 78% 30.27 in 10.0 mi SSE 10.4 mph - N/A   Clear
11:56 AM 63.0 °F - 48.0 °F 58% 30.27 in 10.0 mi South 9.2 mph - N/A   Clear
12:56 PM 64.0 °F - 46.0 °F 52% 30.26 in 10.0 mi South 12.7 mph 19.6 mph N/A   Clear
1:56 PM 64.9 °F - 45.0 °F 48% 30.25 in 10.0 mi SSE 13.8 mph 20.7 mph N/A   Clear
2:56 PM 64.9 °F - 46.9 °F 52% 30.23 in 10.0 mi SE 17.3 mph 23.0 mph N/A   Clear
3:56 PM 64.0 °F - 48.0 °F 56% 30.23 in 10.0 mi SSE 13.8 mph 20.7 mph N/A   Partly Cloudy
4:56 PM 64.0 °F - 48.0 °F 56% 30.22 in 10.0 mi SE 19.6 mph - N/A   Scattered Clouds
5:56 PM 61.0 °F - 46.9 °F 60% 30.21 in 10.0 mi SE 21.9 mph 25.3 mph N/A   Clear
6:56 PM 57.0 °F - 46.0 °F 67% 30.22 in 10.0 mi SE 13.8 mph - N/A   Clear
7:56 PM 54.0 °F - 50.0 °F 86% 30.22 in 10.0 mi ESE 13.8 mph - N/A   Clear
8:56 PM 53.1 °F - 51.1 °F 93% 30.23 in 10.0 mi SE 13.8 mph - N/A   Clear
9:56 PM 52.0 °F - 50.0 °F 93% 30.25 in 10.0 mi SE 10.4 mph - N/A   Clear
10:56 PM 51.1 °F - 48.9 °F 92% 30.26 in 10.0 mi SE 9.2 mph - N/A   Clear
11:56 PM 48.9 °F - 48.0 °F 97% 30.26 in 10.0 mi ESE 6.9 mph - N/A   Clear